This demonstration page uses our WeatherBlox Daily Observations layout. Learn more.

Left ArrowRight Arrow

Hourly Observations for July 16, 2018

Temp ( °F °C ) Dew Point ( °F °C ) Humidity (%) Winds ( mph kmh ) Pressure ( in mb ) Visibility ( mi km ) Precip ( " mm )
12:51 am 00:51 Clear 78 25.6 64 17.8 62 62 WNW 6 9 29.86 1011 10 16.0934 N/A
1:51 am 01:51 Clear 77 25 64 17.8 64 64 N N/A 29.86 1011 10 16.0934 N/A
2:51 am 02:51 Clear 75 23.9 65 18.3 71 71 E 3 6 29.86 1011 10 16.0934 N/A
3:51 am 03:51 Clear 75 23.9 65 18.3 71 71 N N/A 29.84 1011 10 16.0934 N/A
4:51 am 04:51 Clear 74 23.3 64 17.8 71 71 N N/A 29.86 1011 10 16.0934 N/A
5:51 am 05:51 Sunny 74 23.3 63 17.2 69 69 SE 5 7 29.89 1012 10 16.0934 N/A
6:51 am 06:51 Sunny 77 25 64 17.8 64 64 SE 3 6 29.9 1013 10 16.0934 N/A
7:51 am 07:51 Mostly Cloudy 79 26.1 64 17.8 60 60 SSW 5 7 29.91 1013 10 16.0934 N/A
8:51 am 08:51 Mostly Cloudy 81 27.2 64 17.8 57 57 SSW 5 7 29.92 1013 10 16.0934 N/A
9:51 am 09:51 Sunny 83 28.3 63 17.2 51 51 N N/A 29.91 1013 10 16.0934 N/A
10:51 am 10:51 Sunny 88 31.1 62 16.7 42 42 VRB 3 6 29.89 1012 10 16.0934 N/A
11:51 am 11:51 Sunny 89 31.7 61 16.1 39 39 WSW 6 9 29.87 1012 10 16.0934 N/A
12:51 pm 12:51 Sunny 91 32.8 61 16.1 37 37 VRB 5 7 29.84 1011 10 16.0934 N/A
1:51 pm 13:51 Sunny 94 34.4 60 15.6 32 32 NW 8 13 29.81 1009 10 16.0934 N/A
2:51 pm 14:51 Sunny with Nearby Thunderstorms 95 35 58 14.4 29 29 VRB 6 9 29.78 1009 10 16.0934 N/A
3:51 pm 15:51 Cloudy with Nearby Thunderstorms 87 30.6 61 16.1 42 42 NNW 24 39 29.81 1010 10 16.0934 N/A
4:09 pm 16:09 Cloudy with Thunderstorms 86 30 61 16.1 43 43 N 13 20 29.71 1006 10 16.0934 N/A
4:38 pm 16:38 Partly Cloudy 88 31 61 16 40 40 VRB 3 6 29.71 1006 10 16.0934 N/A
4:51 pm 16:51 Sunny 88 31.1 61 16.1 40 40 N N/A 29.8 1009 10 16.0934 N/A
5:24 pm 17:24 Sunny with Nearby Thunderstorms 90 32 61 16 38 38 WNW 5 7 29.71 1006 10 16.0934 N/A
5:51 pm 17:51 Sunny with Nearby Thunderstorms 89 31.7 62 16.7 41 41 W 6 9 29.8 1009 10 16.0934 N/A
6:04 pm 18:04 Sunny 88 31 63 17 43 43 W 9 15 29.71 1006 10 16.0934 N/A
6:51 pm 18:51 Sunny 85 29.4 62 16.7 46 46 NNW 5 7 29.81 1010 10 16.0934 N/A
7:51 pm 19:51 Clear 84 28.9 63 17.2 49 49 N N/A 29.83 1010 10 16.0934 N/A
8:51 pm 20:51 Clear 85 29.4 61 16.1 45 45 NE 8 13 29.86 1011 10 16.0934 N/A
9:51 pm 21:51 Windy with Storms Likely 75 23.9 65 18.3 71 71 E 25 41 29.95 1014 10 16.0934 N/A
10:11 pm 22:11 Cloudy with Nearby Thunderstorms 72 22.2 67 19.4 84 84 E 20 31 29.97 1015 8 12.87472 0.01 0.254
10:23 pm 22:23 Windy with Storms Likely 71 21.7 67 19.4 87 87 E 20 31 29.97 1015 7 11.26538 0.02 0.508
10:51 pm 22:51 Cloudy with Light Thunderstorms 70 21.1 66 18.9 87 87 ENE 8 13 29.98 1015 6 9.65604 0.08 2.032
10:59 pm 22:59 Cloudy with Nearby Thunderstorms 70 21.1 66 18.9 87 87 E 7 11 30 1016 6 9.65604 0.01 0.254
11:18 pm 23:18 Mostly Cloudy with Rain 70 21 66 19 88 88 WSW 3 6 30 1016 4 6.43736 N/A
11:51 pm 23:51 Mostly Cloudy with Light Rain 69 20.6 67 19.4 93 93 NW 5 7 29.94 1014 9 14.48406 0.12 3.048

Powered by AerisWeather